Wind_Speed
38 30 20 18 18 17 17 18 18 17 16 16 14 12 11 10 9 9 8 8 8 7 6 7 8 9 9 10 11 11 11 11 10 8 5 2 2 5 7 11 14 17 18 19 19 19 19 18 17 16 15 15 14 13 12 11 10 10 9 8 6 5 5 5 5 4 4 4 5 5 7 8 6 5 5 5 5 5 3 1 1 1 2 3 5
38 29 20 19 19 18 17 18 18 17 17 16 14 12 11 9 7 7 6 6 7 7 8 10 11 11 11 12 13 13 14 12 10 7 4 3 6 8 12 16 17 19 19 19 18 18 18 18 17 16 16 16 15 15 14 13 12 11 10 9 8 8 8 8 7 7 6 5 5 5 6 5 4 4 4 4 5 5 3 2 1 2 3 4 4
37 28 22 20 19 20 18 18 19 18 18 17 14 13 11 8 6 6 6 7 8 10 12 13 12 12 12 13 14 16 16 14 11 8 8 10 13 15 17 18 17 19 19 18 17 18 18 17 17 16 16 16 16 16 15 14 13 12 12 11 10 10 9 9 9 8 8 7 5 5 4 3 3 3 4 5 4 3 1 1 2 3 4 4 5
36 29 26 23 20 21 21 20 21 20 19 18 16 14 12 10 9 9 9 10 12 14 14 14 13 13 14 15 15 17 19 18 15 14 16 19 20 20 19 17 17 18 19 18 17 18 18 17 17 17 17 17 17 16 15 15 14 12 13 12 10 10 9 9 9 9 9 8 7 6 5 5 4 5 7 5 3 1 1 2 3 5 6 6 7
34 28 27 24 22 22 23 23 23 21 20 19 18 17 15 14 13 13 14 15 16 16 15 14 13 14 17 17 17 18 21 22 22 22 24 24 23 21 18 17 18 18 18 18 17 17 18 18 19 19 18 17 17 15 15 14 14 13 12 12 10 10 9 8 8 8 9 9 8 7 7 6 5 6 6 4 2 2 3 4 5 6 7 8 8
32 27 26 24 23 23 23 23 22 21 21 21 20 20 19 18 17 17 17 18 18 17 16 16 15 15 17 18 18 19 21 24 25 26 27 25 23 21 18 17 17 18 18 18 17 17 19 20 19 19 18 16 16 15 15 15 14 13 12 11 11 9 8 7 7 7 7 8 7 6 6 6 5 4 4 3 2 3 4 5 6 7 8 8 10
30 26 26 23 22 22 22 21 20 22 23 23 22 22 21 20 19 19 18 18 18 17 16 16 15 14 16 18 19 19 21 23 25 26 25 23 22 21 18 16 16 17 17 17 17 18 20 21 19 18 17 16 16 15 14 14 13 12 11 11 10 7 6 5 5 5 5 5 5 5 4 4 3 2 2 2 3 4 5 6 7 8 8 9 11
28 25 26 25 24 23 22 21 22 23 25 25 24 23 22 21 19 18 18 17 16 15 16 16 15 14 15 16 17 19 20 22 23 23 23 21 21 19 18 16 15 15 15 16 17 19 21 21 19 18 17 16 16 15 13 12 11 11 9 10 8 5 4 4 4 4 4 3 3 2 2 2 2 2 3 3 4 6 7 8 9 9 9 10 12
26 25 26 27 27 26 25 25 25 25 25 26 26 25 23 21 19 18 16 15 14 14 14 14 14 14 14 14 15 16 18 20 21 21 21 21 20 19 18 16 15 15 14 15 18 20 20 20 19 18 17 15 15 14 13 11 9 8 7 6 5 3 3 3 3 2 2 2 1 0 1 2 3 3 4 5 5 6 8 9 9 10 11 12 13
24 24 26 29 29 28 27 27 26 26 26 26 26 26 24 22 20 18 16 15 15 15 14 14 13 13 14 14 14 14 15 17 19 18 19 19 19 19 19 17 17 17 15 16 19 20 20 19 18 18 16 14 13 12 11 10 9 7 4 3 3 1 2 2 2 2 2 2 1 2 2 3 4 4 5 6 6 7 8 9 10 11 12 13 14
23 23 26 29 30 30 29 28 28 28 28 27 27 26 25 23 21 19 18 18 17 17 17 15 14 13 12 13 13 13 13 15 16 16 16 17 18 19 18 16 16 16 15 17 19 19 20 18 18 17 14 12 12 11 9 8 8 7 3 1 2 2 2 3 3 3 3 4 4 5 5 5 5 5 6 7 8 8 9 10 11 12 13 14 14
22 23 26 29 31 31 31 31 31 31 32 31 30 28 27 25 24 23 22 21 21 20 20 19 17 15 13 12 12 12 12 13 14 15 15 16 18 18 17 15 14 14 14 16 18 19 19 17 16 15 12 10 11 10 7 6 6 6 2 2 4 4 4 4 4 4 4 5 6 7 7 7 8 7 7 8 8 9 9 11 12 12 14 14 14
20 22 26 29 30 31 32 33 34 34 35 35 34 32 30 29 28 27 26 25 25 25 25 25 24 21 19 17 15 14 13 13 13 14 14 15 16 16 16 15 14 14 14 15 17 18 18 16 14 13 11 9 9 7 6 4 4 4 2 4 6 6 5 6 6 6 6 6 7 7 8 8 8 8 8 8 9 9 11 12 12 13 14 14 14
19 21 24 27 29 30 31 32 34 34 35 36 36 35 33 32 31 31 31 30 29 29 30 30 30 29 27 24 22 19 18 16 15 15 14 14 15 15 15 15 15 14 15 16 16 16 15 15 13 13 11 10 9 6 5 4 3 3 3 5 6 6 7 7 7 7 7 7 7 7 8 9 9 10 10 10 11 11 13 14 13 13 13 13 14
18 19 22 25 28 29 30 31 33 33 34 35 35 35 34 33 33 33 33 32 31 32 33 33 33 34 34 31 28 25 23 21 20 19 17 16 16 16 15 14 14 14 14 16 16 15 14 14 13 12 10 9 8 5 4 3 2 2 4 5 6 7 8 7 8 8 8 9 9 9 10 10 11 11 12 12 13 13 13 14 13 12 12 13 13
17 17 19 23 25 27 28 29 31 31 33 33 33 33 33 33 32 32 32 32 32 32 33 33 35 36 37 37 35 32 29 27 25 24 23 22 20 19 17 14 13 13 14 15 16 15 14 14 13 11 9 7 6 3 2 2 3 5 6 6 7 9 9 8 8 8 9 9 9 10 10 11 12 12 12 12 12 12 12 12 12 12 12 12 12
17 15 16 19 22 24 25 26 28 29 30 31 32 32 32 32 31 30 31 31 32 32 32 33 36 37 38 39 40 38 36 34 31 30 29 28 26 25 22 18 16 16 16 16 17 16 14 13 12 10 9 7 5 2 1 1 3 5 6 7 9 10 10 9 9 9 9 8 8 8 8 8 9 9 9 9 9 9 9 10 10 10 9 9 8
17 15 14 16 18 20 22 23 25 26 28 28 31 32 31 31 30 29 29 29 30 31 32 34 36 38 39 40 41 42 41 40 38 36 34 33 32 30 28 26 25 23 21 19 19 18 17 15 11 8 9 7 4 2 1 2 5 6 8 10 10 11 10 10 10 9 9 9 8 8 8 7 6 5 5 5 5 6 7 7 7 6 7 7 7
17 14 12 13 15 16 18 19 21 23 25 27 29 31 31 30 30 29 28 28 29 31 33 35 36 37 39 39 40 41 42 43 42 41 40 38 37 36 34 33 31 29 27 24 22 21 20 18 14 11 10 7 5 5 5 6 9 10 11 12 13 14 14 14 14 14 14 14 13 12 12 11 9 8 6 5 5 5 5 6 7 8 9 10 10
17 15 12 11 13 13 14 16 17 19 23 25 27 29 30 29 29 29 29 28 29 31 33 34 35 36 37 38 39 39 40 42 43 43 43 42 40 39 38 37 35 33 31 28 26 23 21 19 18 16 13 9 9 10 11 13 13 12 13 14 15 16 17 18 18 18 18 17 17 16 15 14 13 11 10 9 9 9 10 11 12 12 12 13 13
18 16 12 10 11 12 12 14 15 16 20 24 25 26 28 28 28 29 29 29 30 30 31 33 34 34 35 36 37 38 38 39 40 41 41 40 40 38 37 37 36 35 33 31 29 26 23 22 21 20 17 13 12 13 14 15 14 14 14 15 17 18 19 20 20 20 19 19 18 17 16 16 15 14 13 13 13 13 13 14 13 14 13 13 14
17 16 13 11 10 11 12 12 12 13 17 21 22 23 26 26 27 28 29 29 29 30 30 32 32 32 33 34 35 36 36 37 37 39 39 38 39 38 36 35 35 34 32 31 29 27 25 24 22 21 18 15 14 14 14 14 14 14 15 15 17 18 19 20 20 20 19 19 18 18 17 17 16 15 14 14 14 14 14 13 13 13 13 13 14
17 16 14 12 10 9 10 10 9 10 13 17 19 20 23 25 26 27 28 28 28 28 29 31 31 31 32 33 33 34 34 35 36 37 37 37 37 37 36 35 34 33 31 30 28 25 23 22 20 19 17 15 14 14 13 13 13 12 13 13 14 15 17 17 18 18 18 18 18 18 17 16 15 14 14 14 14 13 13 12 12 13 13 13 13
18 16 15 14 12 10 8 8 7 6 8 12 16 17 20 23 24 25 26 27 27 28 29 30 30 30 31 32 33 33 34 34 34 35 36 36 36 37 37 37 35 34 33 31 29 26 24 22 20 18 17 15 15 14 13 13 13 12 12 13 13 14 14 14 15 15 16 16 16 16 16 15 14 13 13 12 12 11 11 11 11 11 11 11 11
18 16 15 16 14 12 9 8 6 4 4 8 13 15 17 21 23 24 25 26 27 27 28 29 29 29 29 31 32 32 33 33 33 34 35 36 37 37 37 37 36 36 35 34 32 29 27 25 23 21 19 18 18 17 17 17 16 16 16 16 16 16 15 14 14 13 13 13 14 14 14 14 13 12 11 11 10 10 9 9 9 9 9 9 8
19 16 15 16 16 13 11 10 8 5 3 6 10 13 15 19 21 22 23 25 26 26 27 28 28 28 28 29 30 31 32 32 33 33 34 35 36 36 36 36 36 36 36 35 34 32 29 27 26 25 24 23 22 22 21 21 21 20 20 20 20 19 18 16 15 14 13 13 12 12 12 11 11 10 10 9 9 8 7 7 6 6 6 5 5
19 16 14 16 16 14 13 11 9 6 4 6 9 11 13 16 19 21 22 24 25 25 26 26 26 27 27 27 29 30 31 31 32 33 33 34 34 34 35 35 35 36 36 36 35 33 31 29 28 27 26 26 25 25 24 24 23 23 23 23 22 22 20 19 17 16 15 14 13 11 10 9 8 7 7 7 6 5 5 4 3 3 3 3 3
20 15 13 15 15 14 13 11 9 7 5 6 8 10 12 14 17 19 21 22 23 24 25 25 26 26 26 27 27 29 29 30 31 32 32 32 33 33 33 33 34 34 35 36 35 34 32 30 29 28 28 27 27 26 26 25 25 25 25 25 25 24 23 22 20 19 18 17 15 13 11 9 8 6 5 4 3 3 2 2 1 1 1 1 1
20 15 12 13 14 14 13 11 10 9 7 6 7 10 11 13 16 18 19 21 21 23 24 24 25 25 25 26 27 28 29 29 30 31 31 31 31 32 31 31 32 33 34 35 35 35 33 31 30 30 30 29 28 27 27 27 27 27 27 27 27 26 25 24 23 22 21 19 17 15 12 10 8 7 5 4 3 1 0 1 2 2 2 2 2
20 15 11 10 12 13 14 12 12 11 10 9 8 10 11 12 14 17 18 19 20 21 23 23 24 24 25 25 26 27 28 28 28 29 29 30 30 30 30 30 31 32 33 35 36 35 34 32 31 31 31 30 30 29 29 29 29 30 30 30 30 29 28 27 25 24 23 21 19 16 14 12 10 8 6 4 3 1 1 2 3 5 5 6 6
20 15 10 8 10 12 13 12 12 13 12 12 11 11 11 12 13 16 18 18 19 20 21 22 23 24 25 25 26 26 26 27 27 28 28 29 29 29 30 30 31 31 33 34 35 36 35 33 32 32 31 31 31 31 31 30 31 32 32 32 31 31 31 30 29 29 27 25 22 20 18 16 14 12 9 7 4 2 1 2 3 4 5 6 7
20 15 9 6 7 10 11 11 11 13 14 14 13 13 13 12 13 15 17 17 18 19 20 21 23 24 25 25 25 25 26 26 26 27 28 28 29 29 30 30 30 31 32 33 34 35 35 33 32 32 32 32 32 32 31 31 32 32 32 32 32 32 32 32 32 32 31 29 27 25 24 22 20 18 15 13 10 7 4 2 2 3 3 4 4
19 15 9 4 5 7 10 10 10 11 14 15 15 15 14 13 13 15 16 16 17 18 19 20 22 23 24 24 24 25 25 26 26 26 28 29 29 29 30 30 30 30 31 32 33 34 35 34 32 33 33 32 32 32 31 31 31 32 32 32 31 32 32 32 32 33 33 32 31 29 28 27 25 23 21 18 16 14 11 8 4 1 1 2 3
18 15 10 4 2 4 8 9 9 11 13 15 16 15 15 14 14 15 15 16 16 17 18 19 21 22 23 24 24 24 25 26 26 27 28 29 29 30 30 30 30 30 30 31 31 33 34 34 33 33 33 33 32 32 31 31 32 32 33 33 33 33 33 33 33 32 32 32 32 32 32 31 29 28 26 24 22 20 18 15 12 8 4 2 1
17 14 10 4 0 1 5 8 9 10 12 14 15 15 14 14 14 14 15 16 16 17 18 18 20 21 22 23 23 24 25 26 26 27 28 29 29 29 29 29 29 29 29 29 30 32 34 34 33 33 34 33 32 32 31 31 32 33 33 34 34 35 35 35 34 33 33 32 32 33 33 33 33 32 31 29 28 27 25 22 20 16 13 9 7
16 13 11 6 2 2 2 7 8 8 10 11 12 13 13 14 14 14 15 16 16 17 18 18 19 20 22 23 23 24 25 25 25 26 27 28 29 29 29 29 28 28 28 28 29 31 33 34 34 33 33 33 32 31 31 31 31 32 32 33 34 34 35 35 34 34 33 33 32 32 32 33 34 34 34 33 33 32 31 29 27 24 21 18 15
14 13 10 7 3 4 3 5 7 7 7 9 10 11 12 13 13 14 14 15 16 17 17 18 18 19 20 22 22 23 23 23 24 24 25 27 28 28 28 28 27 27 27 28 28 30 31 33 34 33 33 33 32 31 30 29 29 30 30 31 32 33 33 33 33 33 33 33 32 32 32 32 33 34 35 36 36 36 35 34 33 31 29 26 23
13 12 10 7 5 6 5 5 7 6 6 7 8 9 11 13 13 13 13 14 15 16 16 17 17 18 19 20 21 21 22 22 22 22 23 25 26 27 27 27 26 26 27 27 28 29 30 31 33 33 33 32 32 30 28 27 27 27 27 29 30 30 31 32 32 32 32 33 33 33 32 32 32 33 34 36 36 37 37 37 36 36 34 32 31
11 11 9 7 6 7 7 6 7 7 6 6 7 8 10 12 13 12 12 13 14 14 15 16 16 16 17 18 19 19 20 20 20 20 21 22 24 25 26 26 26 25 26 27 28 29 30 30 31 33 33 33 32 30 28 27 27 26 26 27 28 29 30 31 31 32 32 33 34 34 33 33 33 33 33 34 35 37 37 37 37 37 37 36 35
11 10 9 7 6 8 9 8 8 7 6 6 7 7 9 10 11 12 12 12 13 13 14 14 15 15 16 16 17 18 18 18 18 19 19 20 22 23 24 25 25 25 25 26 27 28 29 30 30 32 33 33 32 30 29 29 28 28 27 28 29 29 29 30 31 32 32 33 35 35 35 34 34 35 35 34 35 36 36 37 37 37 37 37 37
10 8 8 6 6 8 10 10 9 9 7 7 7 8 8 9 9 10 11 12 13 12 12 13 14 14 14 14 15 16 16 16 17 17 17 18 20 22 23 24 24 24 25 25 26 28 28 29 29 30 31 32 32 31 30 30 30 29 29 29 29 29 29 30 31 32 33 34 35 36 36 36 36 37 38 37 37 37 37 37 36 36 36 36 36
11 8 7 6 6 8 11 12 11 10 9 8 8 9 9 8 8 9 10 12 12 12 12 13 13 12 12 12 13 14 15 14 15 15 16 17 19 21 22 22 23 23 24 24 25 26 27 28 28 29 30 31 32 32 31 31 30 30 30 30 29 29 29 30 30 31 32 33 35 36 37 36 37 38 40 40 40 40 40 39 38 38 37 37 36
12 9 8 6 6 8 11 13 13 12 11 9 9 10 10 9 7 7 9 10 11 11 11 12 12 11 11 11 13 13 13 12 13 14 15 16 18 19 20 21 22 23 23 23 24 25 26 26 27 28 29 30 31 32 32 31 31 31 30 30 29 29 29 29 29 30 31 31 33 34 35 35 36 37 39 40 41 42 42 42 41 40 39 39 38
12 10 9 8 7 9 12 14 15 14 12 11 10 10 11 10 8 7 8 9 10 10 10 12 12 11 11 11 12 12 11 11 11 12 13 15 16 18 19 20 21 22 22 22 23 24 24 25 26 27 28 29 30 31 31 31 31 31 31 30 30 30 30 30 29 29 29 29 30 32 32 33 33 34 36 37 38 39 40 40 40 40 39 38 38
13 11 10 9 8 9 12 15 16 16 14 13 12 11 11 11 10 9 9 9 10 9 9 11 11 10 11 12 12 11 9 9 10 11 12 13 15 16 18 19 19 20 21 21 21 22 23 24 25 26 27 28 29 30 30 30 30 30 31 31 31 30 30 30 30 28 28 29 30 30 30 30 30 30 32 33 34 35 36 37 37 37 36 36 36
13 11 11 10 8 9 12 16 17 18 16 15 13 11 11 11 10 9 9 9 10 9 9 10 10 9 11 12 11 10 8 8 9 10 11 12 14 15 17 18 18 19 20 20 20 20 21 22 23 24 25 26 27 28 28 29 29 29 29 30 30 30 30 30 30 29 29 29 30 31 30 29 29 29 30 31 32 32 33 34 35 35 35 34 34
14 12 11 11 9 10 13 17 18 19 19 17 14 12 12 11 11 10 9 8 9 9 9 9 9 8 9 11 10 9 7 7 8 8 9 11 12 14 15 16 17 18 19 19 18 19 20 21 21 22 23 24 25 25 26 27 28 28 28 28 29 29 29 29 29 29 29 29 30 31 31 30 30 31 31 32 32 32 33 33 34 34 34 33 33
15 14 12 12 11 11 15 18 20 21 21 19 16 14 13 13 12 11 10 9 8 8 8 8 9 9 9 9 9 7 6 6 7 7 8 9 10 12 13 15 16 17 18 17 17 18 18 19 20 20 21 22 22 23 24 25 25 26 26 27 27 28 27 27 28 28 28 28 29 30 30 29 30 31 31 31 32 32 32 33 33 32 32 32 32
18 16 14 13 13 13 16 19 21 22 22 21 19 16 15 14 13 12 11 10 9 8 7 6 7 8 8 8 7 6 5 5 6 6 7 8 9 10 11 13 14 16 16 16 16 16 17 17 18 18 18 19 20 20 21 22 23 24 24 25 26 25 25 25 26 26 26 26 27 28 28 28 28 29 29 30 30 31 31 31 31 31 31 30 30
20 18 16 15 14 14 15 18 22 23 24 24 21 19 17 16 14 13 12 10 10 9 8 6 6 7 7 7 7 5 4 5 5 5 5 6 7 8 9 11 13 14 15 15 15 15 16 16 16 16 16 16 17 17 18 19 20 21 22 23 24 24 23 23 24 24 24 25 25 26 26 26 26 27 27 28 29 29 29 29 29 29 29 29 29
22 19 17 16 14 14 16 18 22 25 26 26 24 22 20 19 17 15 13 11 10 9 8 7 7 6 6 6 6 5 4 4 4 3 4 4 5 6 8 10 11 12 13 14 14 14 14 15 15 15 14 14 14 14 15 16 17 18 19 21 21 22 22 22 22 22 22 23 23 24 24 24 24 25 26 27 28 28 28 28 28 28 28 27 27
Wind_Direction
12 18 29 38 26 16 10 1 357 354 348 342 337 333 333 335 338 343 351 359 1 6 16 25 28 28 24 17 15 11 2 350 337 325 323 343 31 50 71 88 92 90 88 86 86 86 86 87 89 93 97 99 100 98 93 90 87 85 79 75 85 92 93 100 104 108 128 147 160 161 156 160 163 169 172 183 195 189 180 123 36 317 290 296 305
12 22 36 37 24 18 15 4 359 357 352 349 349 352 351 352 354 4 19 27 30 40 48 50 46 39 32 29 28 23 15 8 358 350 10 71 88 90 96 100 97 92 87 86 87 87 87 89 91 92 94 95 94 90 85 84 80 80 80 76 76 80 79 78 81 88 98 110 130 144 149 161 169 170 168 170 180 175 159 130 19 317 299 303 316
13 25 34 31 25 22 18 9 4 1 1 4 9 10 11 14 25 46 61 60 58 60 60 58 51 46 42 39 37 34 32 30 30 43 74 96 99 100 103 101 94 89 88 88 88 87 86 88 91 91 90 89 85 82 81 79 76 75 77 73 66 68 71 71 73 79 82 85 95 115 130 139 148 158 157 160 167 166 175 206 285 299 297 300 311
15 24 31 33 29 24 20 14 10 9 15 21 25 28 33 42 60 78 83 79 74 71 68 63 59 58 51 46 45 43 44 45 55 72 89 98 97 99 99 94 89 87 88 86 85 86 88 89 89 89 87 84 81 78 78 79 76 72 71 70 65 65 70 71 72 77 82 88 95 103 112 118 129 149 158 162 169 179 284 288 294 294 297 300 305
18 26 33 36 31 27 22 16 14 19 30 35 40 45 52 63 77 86 89 85 80 76 71 68 66 64 55 52 52 51 54 57 68 81 90 94 96 98 94 89 88 86 85 86 85 87 92 92 88 88 86 82 82 80 79 79 78 74 72 73 72 71 73 74 79 85 92 101 111 116 119 126 135 149 162 173 210 264 295 303 299 296 299 302 303
22 30 35 38 33 30 27 20 21 33 42 46 51 56 62 71 80 86 87 84 79 75 70 67 67 66 60 58 58 60 64 67 73 83 88 91 95 96 92 89 88 84 84 87 89 91 93 93 90 89 87 84 83 83 82 81 80 78 78 78 78 79 83 84 88 96 98 103 112 119 121 129 141 149 169 193 240 274 292 296 297 300 303 303 303
26 33 36 42 38 33 32 31 34 44 49 53 57 61 66 71 77 82 83 81 77 72 67 65 67 70 67 64 63 66 71 74 78 83 88 92 94 92 90 86 85 85 86 90 94 95 96 96 95 92 92 91 88 88 85 80 78 79 81 81 80 82 91 97 98 102 103 108 116 125 125 131 147 162 190 219 250 272 283 289 296 299 302 303 303
30 37 36 40 41 37 37 39 43 49 52 55 58 60 64 68 72 76 78 78 75 70 66 65 68 73 73 70 68 69 74 78 80 85 90 92 93 93 90 84 84 89 94 97 97 97 97 96 94 94 94 92 90 88 84 77 70 71 78 84 90 92 87 89 97 104 108 115 126 142 160 173 195 218 236 248 258 267 277 284 291 297 300 301 301
34 40 38 40 41 40 39 41 46 50 53 56 57 58 60 63 66 69 71 71 69 64 61 63 67 73 76 75 72 70 73 79 83 86 92 93 93 93 91 90 90 91 97 99 98 97 96 92 89 89 89 88 88 86 84 81 76 72 76 90 105 109 77 63 65 84 89 90 114 146 243 248 252 256 260 261 266 272 279 285 291 296 298 300 303
39 43 43 44 43 41 41 43 47 50 53 55 56 56 58 59 62 64 65 64 62 59 56 60 67 72 74 76 77 76 74 80 86 88 93 98 97 92 89 88 87 88 95 99 100 99 96 90 84 83 83 83 85 86 87 89 91 82 74 90 101 88 45 31 26 13 356 348 323 305 298 286 279 276 273 270 275 280 285 292 297 299 301 304 306
45 48 48 49 47 45 45 47 50 52 54 55 55 55 55 56 58 60 61 59 57 54 53 55 62 68 71 75 79 82 83 85 91 94 96 101 100 94 90 85 82 85 94 102 105 103 97 86 77 75 76 77 78 77 78 87 94 87 74 46 25 15 357 347 346 329 316 311 307 303 299 294 290 287 281 277 280 286 295 303 304 305 306 304 303
50 53 54 55 53 52 52 54 55 56 57 57 56 55 54 53 54 56 57 55 52 52 52 54 56 60 64 72 79 86 90 91 97 102 103 103 101 99 98 96 94 95 100 107 110 107 98 88 81 79 79 76 75 69 62 63 78 85 80 335 335 335 328 327 325 317 305 294 293 297 297 294 291 289 287 283 285 292 306 314 313 308 304 301 301
57 58 59 61 60 59 58 59 59 60 60 60 59 58 57 56 57 59 59 57 56 58 59 58 58 59 63 69 77 85 89 93 98 104 108 107 104 106 110 112 112 111 111 114 115 112 104 103 105 104 102 90 84 83 80 62 49 56 356 319 320 324 322 319 317 314 308 297 290 291 292 293 293 293 293 291 292 299 308 316 318 313 307 302 302
64 65 64 66 66 64 62 61 61 62 62 62 61 61 61 61 63 64 64 63 64 64 64 62 61 62 64 68 73 78 85 90 94 98 105 108 111 116 118 118 117 119 121 121 121 117 113 114 114 112 112 106 105 102 98 88 46 29 336 328 322 325 324 315 315 316 319 316 307 301 297 298 298 299 300 300 301 305 309 313 316 313 308 303 302
69 72 69 70 71 66 64 64 63 64 64 63 62 61 62 63 64 66 67 67 66 66 66 65 65 65 66 68 71 74 79 84 88 91 95 101 108 113 114 115 117 120 123 126 127 122 115 114 110 106 107 101 101 92 82 80 21 336 317 324 320 327 328 318 319 321 323 320 314 311 306 302 300 299 300 301 304 307 310 311 310 308 305 303 306
72 78 75 72 74 69 65 65 64 64 63 63 62 62 62 63 64 66 68 67 66 66 67 67 67 68 67 68 70 73 76 80 83 84 86 90 95 101 105 113 120 126 128 128 129 125 120 117 114 112 110 90 81 79 59 15 322 307 310 318 323 335 338 330 328 326 321 318 314 312 306 300 295 292 294 297 301 304 306 306 306 305 307 311 317
70 79 80 73 74 70 64 62 62 63 62 63 63 62 61 62 64 66 67 66 66 66 68 69 69 69 69 69 70 72 74 78 80 82 83 84 86 91 96 102 110 120 125 126 126 125 120 113 109 110 111 100 92 93 43 346 327 332 341 341 341 345 346 343 339 334 330 329 329 328 323 315 305 299 298 300 302 303 304 306 309 313 321 332 341
64 75 83 75 73 70 65 59 58 61 61 62 63 62 60 60 63 66 67 66 66 67 68 70 70 71 71 72 72 73 75 77 79 81 82 83 84 86 88 91 95 101 107 112 116 115 109 100 96 96 97 99 108 109 94 13 3 13 17 13 11 13 16 14 11 9 10 11 12 14 14 12 6 355 340 330 322 318 318 323 334 351 6 19 29
58 67 80 78 75 70 65 58 55 59 58 61 63 63 60 59 62 66 68 69 69 68 69 71 71 72 72 73 74 74 76 78 80 81 82 82 82 83 83 84 86 90 93 98 102 105 103 99 96 88 80 80 88 83 70 49 41 42 40 38 40 44 46 44 42 41 40 39 38 39 39 40 41 39 34 27 22 18 22 31 41 48 50 53 57
53 61 74 78 79 71 67 59 54 57 56 59 64 65 63 61 63 68 71 72 73 71 71 71 72 72 72 73 74 75 77 78 80 81 82 82 82 82 82 82 83 85 87 89 92 96 97 96 97 93 85 78 80 78 69 63 60 59 55 53 54 55 55 54 52 50 50 49 48 48 48 49 51 52 54 56 59 60 62 61 62 63 64 65 68
46 55 66 73 81 75 70 63 58 58 56 58 63 67 66 64 66 71 73 74 75 74 72 71 71 72 72 73 74 75 76 78 80 82 82 81 82 82 83 84 84 85 86 88 89 91 90 88 89 93 93 88 84 80 75 72 68 65 62 59 57 57 56 55 54 53 52 51 51 51 51 53 54 56 59 62 64 64 65 65 67 69 70 71 73
39 47 56 62 77 80 73 66 62 60 57 58 62 67 68 68 70 73 75 76 76 74 72 72 72 73 73 74 74 75 76 77 79 82 82 81 82 82 82 82 82 82 84 85 87 89 89 86 85 87 89 86 81 77 75 73 69 65 61 58 57 57 57 57 56 54 53 52 51 50 50 51 51 53 55 58 59 61 63 65 67 69 70 72 74
34 39 45 50 62 76 76 71 67 62 58 59 61 67 70 72 74 75 76 77 76 74 73 74 74 74 75 75 75 76 76 77 78 80 82 81 80 79 78 77 76 76 76 78 79 80 82 82 82 81 81 78 75 70 67 65 61 58 56 54 54 56 59 60 60 59 57 55 54 52 51 51 51 51 53 56 58 59 61 62 64 66 68 71 73
29 33 36 38 44 59 72 75 76 68 55 57 61 67 73 76 78 78 77 77 76 75 76 77 76 76 76 76 77 77 78 78 78 79 80 80 78 77 76 75 74 73 72 73 74 74 75 76 76 75 74 71 68 64 60 57 54 52 52 51 50 50 52 55 59 61 61 59 59 57 55 54 53 53 55 57 59 59 59 59 60 63 66 69 71
25 30 31 29 33 44 60 74 86 92 56 53 63 71 77 79 80 80 78 77 77 77 77 78 78 77 77 77 78 79 80 80 78 77 77 78 78 77 75 74 73 71 70 70 71 72 73 73 74 73 72 70 69 66 64 62 60 58 58 58 56 53 52 51 53 56 59 59 59 60 60 57 55 54 55 57 58 59 59 58 59 61 64 65 67
22 30 28 24 27 38 54 71 86 99 70 61 73 80 82 82 82 82 80 78 78 78 79 79 79 78 77 77 79 80 81 80 79 77 77 77 77 76 74 73 71 69 67 65 65 67 69 71 72 72 71 70 70 68 67 66 63 62 62 62 61 60 58 56 55 56 57 56 56 56 58 58 56 54 54 54 55 56 58 61 60 59 58 58 59
19 29 29 23 27 38 53 69 82 90 74 70 85 91 89 86 84 84 83 80 79 80 80 80 79 79 78 78 78 80 81 81 80 78 77 75 75 74 72 71 69 67 65 63 62 62 64 66 68 68 68 67 66 65 64 63 61 59 57 58 59 58 58 57 57 58 59 59 57 54 53 53 52 52 53 54 56 56 56 57 56 53 47 44 42
15 27 31 25 28 42 53 64 75 78 72 72 90 101 99 91 88 88 84 82 80 81 82 81 80 79 80 80 79 80 80 80 80 79 76 74 73 72 71 70 69 67 65 63 62 62 63 65 66 66 65 65 64 63 62 61 59 57 56 55 56 56 55 54 53 53 55 57 57 57 55 53 50 47 45 46 50 58 59 54 48 43 40 23 10
12 23 33 28 31 46 53 59 66 69 70 72 94 110 109 96 91 91 86 83 82 82 82 81 81 80 80 82 81 81 81 80 79 78 76 74 73 72 71 70 69 67 65 63 62 62 63 64 64 64 63 63 61 61 61 61 61 60 60 59 59 59 58 56 54 52 52 52 51 51 51 52 53 52 51 46 40 31 268 232 233 236 238 235 234
8 17 33 33 35 50 57 61 65 68 70 74 94 113 115 102 95 95 89 86 83 83 84 83 83 82 82 83 83 83 82 80 78 76 75 75 74 73 71 70 68 67 64 62 60 60 61 62 62 61 60 60 60 61 62 64 65 65 65 64 63 63 62 60 58 57 55 53 52 50 48 47 46 45 47 46 44 17 292 245 235 232 233 234 234
6 10 29 39 38 54 62 64 66 69 71 75 90 107 115 108 100 97 94 89 85 85 86 86 85 84 84 84 84 83 81 79 76 75 75 75 74 73 71 70 68 67 65 62 59 59 59 61 60 59 59 59 61 64 66 68 68 68 67 65 64 64 63 62 61 60 58 56 54 52 50 47 44 41 39 37 34 16 328 279 261 249 243 241 239
4 5 19 41 43 57 66 65 67 70 72 76 87 101 110 110 104 100 98 94 89 88 89 89 87 86 86 85 84 83 80 78 76 74 74 74 73 72 71 69 67 66 65 63 60 59 60 61 61 59 59 61 65 69 70 70 70 69 67 66 65 64 64 63 62 61 60 59 57 55 53 50 48 46 44 41 39 35 25 344 287 265 260 257 255
3 360 6 34 48 60 71 69 72 75 75 79 86 98 105 106 103 102 101 98 94 93 92 91 90 87 86 85 84 83 80 78 76 75 74 73 72 71 70 68 67 66 65 63 61 60 60 61 61 60 60 63 69 72 72 72 71 69 68 66 65 64 64 63 62 62 61 60 59 58 56 55 53 52 51 49 48 47 45 42 37 13 248 240 247
1 356 356 13 51 63 79 78 80 84 82 83 87 95 101 101 101 101 101 98 96 97 97 95 92 90 88 86 85 83 81 78 77 76 74 72 71 70 69 68 67 66 66 64 62 61 60 61 62 62 61 65 71 73 73 73 71 70 68 66 65 63 63 62 61 61 61 60 60 60 59 58 57 57 56 55 54 54 54 53 52 54 62 99 163
358 353 348 343 177 85 90 92 91 95 91 86 87 93 98 100 100 100 99 98 98 100 101 99 95 93 90 88 86 83 82 80 78 76 74 72 70 69 68 67 67 67 67 66 63 62 61 61 62 63 63 65 70 73 74 74 73 71 69 66 64 63 62 61 60 60 59 59 59 60 60 60 59 59 59 59 58 58 57 58 58 59 60 63 67
354 350 344 326 240 200 125 110 106 105 99 89 88 93 98 101 100 100 99 98 99 100 103 102 98 95 93 91 89 86 84 81 78 76 73 71 69 68 67 67 67 67 68 68 65 63 62 62 62 63 64 66 69 72 73 74 74 71 68 65 63 62 61 60 60 59 58 58 58 59 59 60 60 60 61 61 62 61 61 61 62 63 63 64 65
350 347 340 321 255 210 187 134 121 117 109 98 92 95 101 104 102 101 101 101 102 103 104 104 101 98 95 94 92 89 85 82 78 75 72 71 69 68 67 67 67 68 69 69 67 65 64 63 63 64 65 66 68 70 72 73 73 71 68 65 62 61 60 60 59 59 58 57 57 57 58 59 60 61 61 62 63 63 64 64 64 65 66 68 69
344 343 336 318 266 216 203 169 138 127 120 112 101 99 106 108 107 106 105 105 106 106 106 106 103 99 97 96 94 91 87 83 79 75 72 70 70 68 67 68 68 69 69 69 68 67 65 64 64 64 65 66 68 69 71 72 71 69 66 64 61 60 60 60 59 59 59 58 58 57 57 58 60 61 62 62 63 64 64 65 65 66 67 69 70
334 338 332 316 274 226 207 191 161 142 129 123 116 108 113 113 109 108 111 113 112 110 109 109 107 102 99 98 97 94 89 85 81 76 72 71 71 70 68 68 69 70 70 70 69 68 67 65 65 65 65 65 67 69 70 70 69 67 65 64 62 61 61 61 61 60 60 60 60 59 59 59 60 62 63 63 64 64 64 64 65 65 66 67 68
321 331 326 313 277 234 212 202 181 158 141 134 130 122 122 120 112 109 113 118 118 117 115 114 111 105 101 101 99 95 90 86 81 77 73 72 72 72 70 70 70 71 71 71 70 69 68 67 66 66 65 65 66 67 69 69 68 66 65 65 64 63 62 63 63 62 62 62 62 62 61 61 62 64 64 64 64 65 65 64 64 64 65 66 66
307 319 317 307 277 240 215 208 195 173 155 146 142 136 131 126 119 114 116 121 121 121 122 120 117 111 106 104 101 96 90 86 81 77 74 72 72 73 72 71 71 72 72 72 71 70 69 68 67 67 66 66 65 65 66 67 67 66 65 65 65 64 63 63 64 64 64 64 64 64 64 63 64 66 66 66 66 66 66 65 64 64 64 65 65
294 302 305 295 269 240 218 211 205 188 168 157 152 145 141 137 130 120 121 125 123 122 126 128 125 119 113 110 104 97 91 87 82 78 74 71 72 73 73 73 73 74 73 73 72 72 71 70 69 68 68 68 67 65 64 65 66 65 65 65 66 66 64 64 64 65 65 66 66 66 66 65 66 67 68 69 68 68 68 67 66 66 65 65 65
282 286 290 284 259 234 219 213 211 200 180 166 158 149 145 143 141 132 129 132 128 124 129 134 132 128 125 118 107 100 95 90 83 78 73 70 71 72 74 74 74 75 75 74 74 74 73 72 71 70 69 69 68 67 65 64 65 65 65 65 66 66 66 65 64 65 65 66 67 67 67 67 67 68 69 70 70 70 69 69 68 68 67 67 66
273 274 278 275 254 231 218 214 214 208 191 175 164 155 149 145 145 140 136 138 136 131 133 137 138 136 133 123 112 106 101 94 84 77 72 71 72 73 75 76 75 75 76 76 76 75 75 74 73 72 71 69 69 69 67 65 65 66 66 65 65 66 66 66 65 64 65 65 65 66 66 66 67 68 68 69 69 69 69 69 68 68 67 67 67
264 264 269 271 257 233 219 214 215 213 201 185 173 163 155 150 148 145 142 143 143 140 139 142 144 142 135 125 117 114 107 95 84 77 73 72 73 75 76 76 75 75 76 76 76 77 77 77 75 74 71 69 69 69 69 67 66 66 67 66 66 66 66 67 66 64 64 65 65 65 64 64 64 65 65 65 65 66 66 66 65 65 65 65 66
254 255 262 267 255 233 221 214 213 214 207 194 182 171 162 154 148 145 143 143 144 144 143 147 151 146 135 127 123 120 110 94 83 77 74 74 74 76 76 76 75 75 75 75 76 77 77 77 76 75 72 70 69 68 69 68 67 66 66 67 67 66 65 66 66 65 64 65 65 65 64 63 63 63 63 63 63 63 63 63 63 63 63 63 63
243 244 253 258 247 228 219 213 211 213 211 200 189 177 167 159 150 144 141 141 143 145 146 150 153 148 136 130 129 125 113 97 86 79 75 75 75 76 76 76 75 75 74 73 73 74 76 76 76 75 73 70 68 67 67 67 68 67 66 66 67 66 65 65 66 65 64 64 65 65 63 63 63 63 63 63 63 63 63 63 63 64 63 63 62
235 235 241 246 237 223 216 213 210 212 212 205 194 184 174 166 158 149 143 140 140 144 149 154 154 151 143 137 135 131 120 103 91 83 78 76 74 74 75 75 75 74 73 72 71 71 73 74 75 75 73 71 68 66 64 64 66 66 66 65 65 66 65 65 65 65 64 63 64 65 64 62 62 62 62 62 62 62 62 62 62 62 62 62 61
229 228 232 234 232 226 217 213 210 210 211 208 200 192 184 176 166 155 148 143 140 143 153 161 162 158 153 147 143 138 125 108 97 86 80 77 74 72 73 73 73 73 72 71 68 68 69 70 72 73 73 71 69 66 64 62 62 63 64 64 64 63 64 64 64 64 64 62 62 63 63 62 60 61 61 61 61 60 60 60 59 59 58 58 57
226 224 228 229 230 230 223 214 209 208 209 208 204 199 192 184 173 163 156 150 146 147 154 164 169 169 166 158 150 145 130 111 101 88 79 77 74 71 69 69 70 70 69 68 66 64 64 65 66 69 71 70 68 66 63 61 60 59 60 62 62 61 61 61 62 63 63 63 61 61 62 61 59 59 59 59 59 58 57 57 56 56 54 53 51
224 221 225 225 223 225 225 218 211 208 207 208 207 204 198 190 182 174 167 161 155 154 157 165 176 182 181 173 162 153 140 120 108 95 81 74 72 69 66 65 65 65 64 64 62 60 59 60 61 62 65 67 66 64 61 59 57 56 56 57 59 60 59 59 59 59 61 62 62 61 61 59 58 57 57 57 57 57 55 54 53 53 52 51 49
Height
10966 10964 10961 10959 10958 10957 10955 10953 10952 10950 10949 10947 10945 10942 10941 10939 10938 10938 10937 10936 10935 10934 10932 10931 10929 10928 10926 10924 10923 10922 10920 10919 10918 10917 10918 10919 10919 10920 10920 10920 10920 10920 10920 10920 10920 10920 10920 10921 10922 10922 10923 10924 10925 10926 10927 10928 10929 10930 10931 10932 10932 10932 10933 10933 10934 10934 10935 10935 10936 10937 10938 10939 10940 10941 10942 10943 10943 10943 10943 10942 10942 10942 10942 10942 10942
10965 10963 10961 10959 10958 10956 10955 10953 10951 10950 10948 10945 10942 10940 10938 10937 10936 10936 10936 10935 10934 10933 10932 10930 10929 10927 10926 10924 10923 10922 10920 10918 10917 10916 10917 10918 10919 10920 10920 10921 10921 10921 10922 10922 10922 10921 10922 10923 10924 10925 10925 10926 10927 10928 10929 10930 10930 10931 10932 10933 10933 10933 10933 10934 10934 10935 10936 10936 10937 10938 10939 10939 10940 10941 10942 10942 10942 10943 10942 10942 10942 10942 10942 10942 10942
10964 10962 10961 10959 10957 10956 10955 10953 10950 10948 10945 10941 10939 10937 10936 10936 10935 10935 10935 10935 10934 10932 10931 10930 10929 10928 10926 10925 10924 10922 10921 10919 10917 10916 10917 10918 10919 10921 10922 10922 10923 10923 10923 10923 10923 10923 10924 10925 10926 10926 10927 10928 10929 10929 10930 10931 10932 10933 10933 10934 10934 10934 10934 10935 10936 10936 10937 10937 10938 10938 10939 10939 10940 10940 10941 10942 10942 10942 10942 10942 10942 10942 10942 10942 10942
10963 10961 10960 10958 10956 10955 10954 10951 10948 10945 10942 10939 10938 10937 10936 10935 10935 10935 10935 10935 10934 10933 10932 10931 10930 10929 10927 10926 10925 10923 10922 10920 10918 10917 10918 10919 10921 10923 10925 10924 10924 10925 10925 10926 10926 10926 10926 10927 10928 10929 10929 10930 10930 10931 10932 10932 10933 10934 10934 10935 10935 10935 10935 10936 10937 10937 10937 10938 10938 10939 10939 10940 10940 10940 10941 10941 10942 10942 10942 10942 10942 10942 10942 10942 10942
10964 10962 10959 10957 10956 10954 10952 10949 10947 10944 10941 10940 10939 10938 10937 10936 10936 10936 10936 10935 10934 10933 10932 10931 10930 10929 10928 10927 10926 10925 10923 10921 10920 10919 10920 10922 10924 10926 10927 10926 10926 10927 10927 10928 10929 10928 10928 10929 10930 10931 10931 10932 10933 10934 10934 10934 10935 10935 10936 10936 10937 10937 10937 10938 10938 10938 10939 10939 10939 10939 10940 10940 10940 10941 10941 10941 10942 10942 10942 10942 10942 10942 10942 10942 10942
10966 10963 10961 10959 10957 10954 10952 10949 10948 10946 10943 10941 10940 10939 10938 10938 10937 10937 10936 10935 10934 10933 10933 10932 10931 10930 10929 10928 10927 10926 10925 10923 10922 10922 10923 10924 10925 10927 10928 10928 10928 10928 10929 10930 10930 10930 10930 10931 10932 10932 10933 10934 10935 10937 10937 10936 10937 10937 10938 10938 10938 10939 10939 10940 10939 10939 10939 10939 10939 10940 10940 10940 10941 10941 10941 10942 10942 10942 10942 10942 10942 10942 10942 10941 10941
10967 10965 10962 10961 10959 10957 10954 10951 10949 10947 10945 10943 10942 10941 10940 10939 10938 10938 10937 10936 10935 10934 10933 10932 10931 10931 10930 10930 10929 10928 10927 10926 10925 10925 10925 10925 10926 10927 10929 10930 10930 10930 10930 10931 10931 10932 10932 10933 10933 10934 10935 10936 10937 10938 10938 10938 10938 10939 10940 10940 10940 10941 10941 10941 10940 10940 10940 10940 10940 10940 10940 10941 10941 10941 10941 10942 10942 10942 10942 10942 10942 10941 10941 10941 10940
10967 10965 10963 10961 10961 10960 10957 10953 10950 10948 10946 10944 10943 10942 10941 10940 10939 10939 10938 10937 10937 10936 10935 10934 10933 10932 10931 10931 10930 10930 10929 10928 10928 10927 10927 10927 10927 10928 10931 10933 10932 10932 10932 10933 10933 10934 10934 10935 10936 10936 10937 10938 10938 10939 10939 10940 10940 10941 10942 10942 10943 10943 10942 10941 10941 10941 10941 10941 10941 10941 10941 10941 10941 10941 10942 10942 10941 10941 10941 10941 10941 10941 10940 10940 10940
10968 10966 10963 10961 10960 10959 10956 10953 10950 10949 10947 10945 10944 10943 10942 10941 10941 10940 10940 10939 10938 10937 10936 10935 10934 10933 10932 10932 10931 10931 10931 10930 10930 10930 10930 10930 10931 10931 10933 10934 10934 10933 10933 10934 10934 10935 10936 10938 10939 10939 10939 10939 10939 10939 10940 10941 10942 10944 10944 10944 10944 10943 10942 10942 10941 10941 10941 10941 10941 10941 10941 10941 10942 10941 10942 10942 10941 10941 10941 10941 10941 10940 10940 10940 10940
10970 10967 10964 10962 10959 10958 10955 10953 10952 10950 10949 10947 10946 10945 10944 10944 10943 10942 10942 10940 10939 10938 10937 10936 10935 10934 10933 10932 10932 10931 10932 10932 10932 10932 10932 10933 10933 10934 10934 10934 10934 10934 10935 10936 10937 10938 10939 10941 10942 10942 10942 10941 10941 10941 10941 10942 10943 10945 10946 10945 10944 10943 10942 10942 10941 10941 10941 10941 10941 10941 10941 10941 10941 10941 10941 10941 10941 10941 10941 10941 10940 10940 10940 10939 10939
10972 10969 10966 10963 10961 10959 10957 10955 10954 10953 10951 10949 10948 10947 10947 10946 10945 10945 10943 10942 10940 10939 10938 10937 10936 10935 10934 10933 10933 10932 10933 10933 10934 10934 10934 10934 10934 10935 10936 10936 10935 10936 10937 10938 10939 10940 10942 10944 10946 10946 10945 10944 10944 10943 10943 10943 10943 10944 10945 10945 10943 10943 10942 10942 10941 10941 10941 10941 10941 10941 10941 10941 10941 10941 10941 10941 10941 10941 10941 10940 10940 10940 10940 10939 10939
10973 10971 10968 10966 10964 10962 10960 10959 10957 10955 10953 10952 10951 10950 10949 10949 10948 10946 10945 10943 10941 10940 10939 10938 10937 10936 10935 10934 10934 10934 10934 10934 10935 10935 10934 10935 10935 10937 10938 10938 10937 10938 10939 10941 10941 10942 10943 10945 10947 10948 10947 10946 10946 10945 10945 10945 10943 10943 10944 10944 10943 10942 10942 10942 10941 10941 10941 10941 10941 10941 10941 10941 10941 10941 10941 10941 10941 10941 10940 10940 10940 10939 10939 10939 10939
10975 10973 10971 10969 10967 10965 10964 10962 10959 10958 10956 10954 10953 10952 10952 10951 10950 10948 10946 10945 10943 10942 10941 10939 10938 10937 10935 10935 10934 10934 10934 10934 10935 10935 10935 10936 10937 10938 10939 10939 10938 10939 10942 10943 10943 10943 10943 10943 10944 10945 10946 10946 10948 10949 10948 10946 10945 10945 10944 10944 10943 10942 10942 10942 10941 10941 10941 10940 10940 10940 10940 10940 10940 10940 10940 10940 10940 10940 10940 10940 10939 10939 10939 10938 10938
10978 10976 10974 10972 10970 10968 10967 10964 10962 10960 10959 10957 10956 10955 10954 10953 10952 10950 10948 10947 10946 10944 10943 10941 10940 10939 10937 10936 10935 10935 10934 10934 10935 10935 10935 10936 10937 10938 10938 10939 10939 10940 10942 10943 10943 10943 10943 10942 10942 10944 10945 10945 10946 10948 10948 10946 10947 10947 10945 10944 10943 10942 10942 10941 10941 10941 10940 10940 10940 10940 10940 10939 10939 10939 10939 10939 10939 10939 10939 10939 10939 10939 10938 10938 10937
10979 10978 10977 10974 10972 10971 10969 10967 10965 10963 10962 10960 10959 10958 10957 10956 10954 10953 10951 10950 10949 10947 10945 10944 10943 10941 10940 10938 10937 10936 10935 10935 10936 10936 10936 10937 10937 10937 10937 10939 10940 10941 10942 10943 10944 10944 10944 10944 10944 10946 10947 10946 10945 10946 10946 10946 10947 10947 10946 10944 10943 10942 10942 10941 10941 10940 10940 10939 10939 10939 10939 10939 10938 10938 10938 10939 10939 10939 10938 10938 10938 10938 10938 10937 10937
10981 10980 10978 10976 10974 10973 10972 10970 10968 10966 10965 10963 10962 10962 10960 10959 10958 10956 10955 10953 10952 10950 10949 10948 10946 10944 10942 10941 10939 10938 10938 10937 10937 10937 10938 10938 10938 10938 10938 10940 10941 10942 10943 10944 10944 10944 10945 10946 10947 10948 10948 10948 10948 10948 10948 10948 10948 10947 10946 10944 10943 10942 10941 10941 10940 10940 10939 10939 10938 10938 10938 10938 10937 10938 10938 10938 10938 10938 10938 10938 10938 10937 10937 10937 10936
10982 10981 10980 10978 10976 10974 10973 10972 10971 10969 10968 10967 10965 10964 10963 10961 10961 10960 10958 10956 10955 10954 10953 10951 10950 10948 10946 10944 10943 10942 10941 10940 10940 10940 10940 10941 10941 10941 10942 10942 10943 10943 10944 10945 10945 10946 10946 10947 10948 10948 10950 10952 10952 10952 10951 10949 10948 10947 10946 10944 10943 10942 10941 10940 10940 10939 10938 10938 10937 10937 10937 10937 10937 10937 10937 10937 10938 10938 10938 10937 10937 10937 10937 10937 10936
10983 10981 10980 10979 10977 10976 10975 10974 10973 10972 10971 10970 10968 10966 10965 10964 10963 10962 10961 10960 10959 10957 10956 10954 10953 10951 10949 10948 10947 10946 10945 10944 10943 10943 10943 10944 10944 10945 10945 10945 10945 10945 10946 10946 10947 10948 10949 10949 10949 10949 10950 10954 10954 10953 10952 10950 10948 10947 10945 10944 10943 10942 10941 10940 10939 10938 10938 10937 10937 10937 10937 10937 10937 10937 10937 10937 10937 10937 10937 10937 10937 10937 10937 10937 10936
10983 10982 10981 10980 10979 10977 10977 10976 10975 10974 10973 10972 10970 10969 10968 10967 10966 10965 10964 10963 10962 10961 10959 10957 10956 10954 10953 10952 10952 10951 10950 10948 10947 10947 10947 10947 10948 10948 10948 10948 10948 10948 10948 10948 10949 10950 10950 10952 10953 10952 10951 10953 10954 10953 10952 10950 10948 10947 10945 10944 10943 10942 10941 10941 10940 10939 10938 10938 10938 10938 10938 10937 10937 10937 10937 10938 10938 10938 10938 10938 10938 10937 10937 10937 10937
10985 10984 10983 10982 10981 10979 10979 10978 10977 10976 10976 10974 10973 10972 10971 10970 10969 10968 10967 10967 10965 10964 10962 10960 10959 10958 10957 10956 10955 10955 10954 10953 10951 10951 10951 10951 10951 10951 10951 10951 10951 10951 10951 10951 10951 10951 10951 10953 10954 10955 10954 10954 10954 10952 10951 10949 10948 10947 10946 10945 10944 10943 10942 10941 10940 10940 10939 10939 10939 10939 10939 10939 10938 10938 10939 10939 10939 10939 10938 10938 10938 10938 10938 10938 10938
10987 10986 10985 10984 10983 10982 10981 10980 10980 10979 10978 10977 10976 10975 10974 10973 10973 10972 10971 10970 10968 10967 10965 10963 10962 10962 10961 10960 10959 10958 10958 10957 10955 10955 10955 10955 10954 10954 10954 10954 10954 10954 10954 10954 10953 10953 10952 10953 10954 10956 10957 10956 10954 10952 10951 10950 10949 10948 10946 10945 10945 10944 10943 10942 10941 10941 10940 10940 10940 10940 10940 10940 10940 10940 10940 10940 10939 10939 10939 10939 10939 10939 10939 10939 10939
10989 10988 10987 10986 10985 10984 10983 10982 10982 10981 10981 10980 10979 10978 10977 10976 10976 10975 10974 10972 10971 10970 10968 10967 10966 10966 10965 10964 10963 10962 10961 10961 10960 10959 10958 10958 10958 10957 10957 10957 10957 10957 10957 10957 10956 10956 10955 10954 10955 10956 10957 10956 10954 10953 10951 10950 10949 10948 10947 10946 10946 10945 10944 10943 10942 10942 10942 10942 10942 10942 10942 10941 10941 10941 10941 10941 10940 10940 10940 10940 10941 10941 10941 10941 10941
10991 10990 10989 10988 10987 10986 10985 10984 10984 10983 10983 10983 10982 10981 10980 10979 10979 10978 10976 10975 10974 10973 10971 10970 10970 10969 10969 10967 10966 10965 10965 10964 10964 10963 10962 10961 10961 10961 10960 10960 10960 10960 10960 10959 10959 10958 10957 10957 10957 10956 10956 10955 10954 10953 10952 10951 10950 10949 10949 10948 10947 10946 10945 10944 10944 10944 10943 10943 10943 10943 10943 10943 10943 10943 10942 10942 10942 10942 10942 10942 10942 10942 10942 10942 10942
10993 10991 10990 10989 10989 10988 10987 10986 10986 10985 10985 10985 10985 10984 10983 10982 10982 10981 10979 10978 10977 10976 10974 10973 10973 10973 10972 10971 10970 10969 10968 10968 10967 10966 10965 10964 10964 10964 10963 10964 10964 10963 10963 10962 10961 10960 10959 10959 10958 10957 10957 10956 10955 10954 10953 10952 10951 10951 10950 10949 10948 10947 10946 10946 10945 10945 10945 10945 10945 10945 10945 10945 10945 10944 10944 10944 10944 10944 10944 10944 10944 10944 10944 10944 10944
10994 10993 10992 10991 10990 10989 10988 10987 10987 10987 10986 10987 10987 10986 10986 10985 10984 10983 10982 10981 10980 10978 10977 10976 10976 10976 10975 10974 10973 10972 10972 10971 10971 10970 10969 10968 10967 10966 10966 10967 10966 10966 10965 10964 10963 10962 10961 10961 10960 10959 10958 10957 10956 10955 10955 10954 10953 10953 10952 10950 10949 10948 10948 10947 10947 10946 10946 10946 10946 10946 10946 10946 10946 10946 10945 10945 10945 10945 10945 10945 10945 10945 10945 10945 10945
10996 10995 10993 10992 10991 10990 10989 10988 10988 10988 10988 10988 10989 10988 10988 10987 10986 10986 10985 10983 10982 10981 10980 10979 10979 10978 10978 10977 10976 10975 10975 10974 10974 10973 10972 10971 10970 10970 10970 10969 10969 10968 10967 10966 10965 10964 10963 10962 10962 10961 10960 10959 10958 10957 10957 10956 10955 10954 10953 10952 10950 10950 10949 10949 10948 10948 10947 10947 10947 10947 10946 10946 10946 10946 10946 10946 10946 10946 10946 10946 10946 10946 10946 10946 10946
10997 10996 10995 10994 10993 10991 10990 10990 10989 10989 10989 10989 10990 10990 10989 10989 10988 10988 10987 10986 10985 10984 10983 10982 10982 10981 10981 10980 10980 10979 10978 10978 10977 10976 10976 10975 10974 10973 10972 10972 10971 10970 10970 10969 10967 10966 10965 10964 10963 10963 10962 10961 10960 10959 10958 10957 10956 10955 10954 10953 10951 10950 10950 10950 10949 10949 10948 10948 10947 10947 10947 10947 10947 10947 10947 10947 10947 10947 10947 10947 10947 10947 10947 10947 10947
10999 10998 10997 10996 10994 10993 10992 10991 10991 10991 10991 10990 10991 10991 10991 10991 10990 10990 10989 10988 10987 10986 10986 10985 10985 10984 10984 10983 10983 10982 10981 10981 10980 10979 10979 10978 10977 10976 10975 10974 10974 10973 10972 10971 10970 10969 10968 10967 10966 10965 10963 10963 10962 10961 10959 10958 10957 10956 10955 10954 10953 10952 10951 10951 10950 10949 10949 10948 10948 10948 10948 10947 10947 10947 10947 10947 10947 10947 10947 10946 10946 10946 10946 10946 10946
11001 10999 10999 10998 10996 10995 10994 10993 10993 10992 10992 10992 10992 10992 10992 10992 10992 10991 10991 10990 10990 10989 10988 10988 10987 10987 10987 10986 10986 10985 10984 10984 10983 10982 10982 10981 10980 10979 10978 10978 10977 10976 10975 10974 10972 10971 10970 10969 10968 10966 10965 10964 10963 10962 10961 10960 10959 10958 10957 10956 10955 10954 10953 10952 10951 10950 10949 10949 10948 10948 10948 10947 10947 10947 10947 10946 10946 10946 10946 10946 10946 10946 10946 10946 10946
11002 11001 11000 11000 10999 10997 10996 10995 10995 10994 10994 10993 10993 10993 10993 10994 10993 10993 10993 10992 10992 10991 10991 10990 10990 10990 10989 10989 10988 10988 10987 10987 10986 10985 10984 10984 10983 10982 10981 10980 10979 10978 10977 10976 10974 10973 10972 10971 10970 10968 10967 10966 10965 10964 10963 10962 10961 10960 10959 10958 10957 10956 10955 10954 10953 10952 10951 10950 10949 10949 10948 10948 10947 10947 10947 10946 10946 10945 10945 10945 10945 10945 10945 10945 10945
11004 11003 11002 11002 11001 10999 10998 10998 10997 10996 10996 10995 10994 10994 10994 10995 10995 10995 10995 10994 10994 10994 10993 10993 10992 10992 10992 10992 10991 10991 10990 10989 10989 10988 10987 10986 10986 10985 10984 10983 10982 10981 10980 10978 10977 10975 10974 10973 10972 10971 10969 10968 10966 10966 10965 10964 10963 10962 10961 10960 10959 10958 10957 10956 10955 10953 10952 10952 10951 10950 10949 10948 10948 10947 10947 10946 10946 10945 10945 10944 10944 10944 10944 10944 10945
11005 11004 11004 11003 11003 11001 11000 11000 10999 10998 10998 10997 10996 10996 10996 10996 10997 10996 10996 10997 10996 10996 10996 10995 10995 10995 10995 10994 10994 10994 10993 10992 10991 10991 10990 10989 10988 10987 10986 10985 10984 10983 10982 10981 10980 10978 10977 10976 10975 10973 10972 10970 10969 10968 10967 10967 10966 10965 10964 10963 10962 10961 10959 10958 10957 10956 10955 10954 10953 10952 10951 10950 10949 10948 10947 10946 10946 10945 10944 10944 10944 10944 10944 10944 10945
11006 11005 11005 11004 11004 11003 11002 11001 11001 11000 10999 10999 10998 10998 10998 10998 10998 10998 10998 10998 10998 10998 10998 10998 10997 10997 10997 10997 10997 10996 10995 10995 10994 10994 10993 10991 10990 10989 10988 10987 10986 10985 10985 10984 10983 10981 10980 10978 10977 10976 10974 10973 10972 10971 10970 10969 10968 10967 10966 10966 10965 10964 10962 10961 10960 10959 10957 10956 10956 10954 10953 10952 10951 10949 10948 10947 10946 10945 10944 10944 10943 10943 10944 10944 10944
11007 11006 11006 11005 11005 11005 11004 11003 11002 11002 11001 11000 11000 11000 11000 11000 11000 11000 11000 11000 11000 11000 11000 11000 10999 10999 10999 10999 10999 10999 10998 10997 10997 10996 10995 10994 10993 10991 10990 10989 10989 10988 10987 10986 10985 10984 10982 10981 10980 10978 10977 10976 10974 10973 10973 10972 10971 10970 10969 10969 10968 10966 10965 10964 10963 10961 10960 10959 10958 10957 10956 10955 10953 10952 10950 10949 10948 10946 10945 10945 10944 10943 10943 10943 10944
11008 11007 11007 11006 11006 11006 11005 11004 11004 11003 11002 11002 11002 11002 11001 11001 11002 11002 11002 11002 11002 11002 11002 11002 11002 11001 11001 11001 11001 11001 11000 11000 10999 10999 10998 10996 10995 10994 10993 10992 10991 10990 10990 10989 10988 10987 10985 10984 10983 10981 10980 10978 10977 10976 10975 10975 10974 10973 10972 10971 10970 10969 10968 10966 10965 10964 10963 10962 10961 10960 10958 10957 10956 10954 10953 10951 10950 10948 10947 10946 10945 10945 10944 10944 10944
11008 11008 11007 11007 11007 11007 11007 11006 11005 11004 11004 11003 11003 11003 11003 11003 11003 11003 11004 11004 11004 11004 11004 11004 11004 11004 11004 11003 11003 11003 11002 11002 11002 11001 11000 10999 10997 10996 10995 10994 10994 10993 10993 10992 10991 10990 10988 10987 10986 10984 10982 10981 10980 10979 10978 10978 10977 10976 10975 10974 10973 10972 10971 10969 10968 10967 10966 10965 10963 10962 10961 10960 10959 10957 10955 10954 10952 10951 10950 10949 10948 10947 10946 10946 10946
11009 11008 11008 11007 11007 11007 11007 11007 11006 11006 11005 11005 11005 11005 11004 11004 11004 11005 11005 11006 11006 11006 11006 11006 11006 11006 11006 11005 11005 11005 11005 11004 11004 11003 11002 11001 11000 10999 10998 10997 10996 10996 10995 10995 10994 10992 10991 10990 10989 10987 10986 10984 10983 10982 10981 10981 10980 10979 10978 10977 10976 10975 10973 10972 10971 10970 10969 10967 10966 10965 10963 10962 10961 10959 10958 10956 10955 10954 10953 10952 10951 10950 10949 10948 10948
11009 11008 11008 11007 11007 11007 11007 11007 11007 11007 11006 11006 11006 11006 11006 11006 11006 11006 11007 11007 11008 11008 11008 11008 11008 11008 11008 11007 11007 11007 11007 11006 11006 11005 11004 11003 11002 11001 11001 11000 10999 10999 10998 10997 10996 10995 10994 10993 10992 10990 10989 10987 10985 10985 10985 10984 10982 10982 10981 10980 10979 10978 10976 10975 10974 10972 10971 10970 10968 10967 10966 10965 10963 10961 10960 10959 10958 10957 10956 10955 10954 10953 10952 10951 10951
11008 11008 11008 11007 11007 11007 11007 11008 11007 11007 11007 11007 11007 11007 11007 11007 11007 11007 11008 11008 11009 11009 11010 11010 11010 11010 11010 11010 11009 11009 11008 11008 11007 11007 11006 11005 11004 11004 11003 11002 11002 11001 11000 10999 10998 10997 10996 10995 10994 10993 10991 10990 10989 10988 10987 10986 10985 10984 10983 10982 10981 10980 10979 10978 10976 10975 10974 10972 10971 10970 10969 10967 10965 10963 10962 10962 10960 10959 10959 10958 10957 10956 10955 10955 10954
11008 11008 11007 11007 11007 11007 11007 11008 11008 11008 11008 11008 11008 11008 11008 11008 11008 11008 11009 11009 11010 11010 11011 11011 11011 11011 11012 11011 11011 11011 11010 11009 11009 11008 11008 11007 11006 11005 11005 11004 11004 11003 11002 11001 11000 10999 10998 10998 10997 10995 10994 10993 10992 10991 10990 10988 10987 10986 10985 10984 10983 10983 10982 10980 10979 10978 10977 10975 10974 10973 10971 10970 10968 10966 10965 10964 10963 10962 10961 10960 10960 10959 10958 10958 10957
11007 11007 11007 11007 11006 11007 11007 11007 11008 11008 11009 11009 11009 11009 11009 11009 11009 11010 11010 11010 11011 11011 11012 11012 11012 11013 11013 11013 11013 11012 11011 11011 11010 11010 11010 11009 11008 11007 11007 11006 11005 11005 11004 11003 11002 11001 11001 11000 10999 10998 10997 10996 10995 10994 10992 10991 10989 10989 10988 10987 10986 10985 10984 10983 10981 10980 10979 10978 10977 10975 10974 10973 10971 10969 10968 10967 10966 10965 10964 10963 10963 10962 10962 10961 10961
11006 11006 11006 11006 11006 11006 11006 11007 11008 11008 11009 11009 11010 11010 11010 11010 11010 11011 11011 11011 11012 11012 11013 11013 11013 11014 11014 11014 11014 11013 11013 11013 11012 11012 11011 11011 11010 11009 11008 11008 11007 11007 11006 11005 11005 11004 11003 11002 11001 11000 10999 10998 10997 10996 10995 10993 10992 10991 10990 10989 10988 10987 10986 10985 10984 10983 10982 10981 10980 10978 10977 10976 10975 10973 10971 10970 10969 10968 10966 10966 10966 10965 10965 10964 10964
11004 11005 11005 11005 11005 11005 11006 11006 11007 11008 11009 11009 11010 11010 11010 11011 11011 11011 11012 11012 11013 11013 11013 11014 11014 11015 11015 11015 11015 11014 11014 11014 11014 11013 11013 11012 11011 11011 11010 11009 11009 11008 11008 11008 11007 11006 11006 11005 11004 11003 11002 11001 10999 10998 10997 10996 10994 10993 10992 10992 10991 10990 10989 10988 10987 10985 10984 10984 10983 10981 10980 10980 10978 10977 10975 10974 10972 10971 10970 10970 10969 10969 10968 10968 10967
11003 11004 11004 11005 11004 11004 11005 11006 11007 11008 11009 11010 11010 11011 11011 11011 11011 11012 11012 11013 11013 11014 11014 11015 11015 11016 11016 11016 11016 11016 11016 11016 11015 11015 11014 11014 11013 11013 11012 11011 11011 11010 11010 11010 11009 11008 11008 11007 11006 11005 11004 11003 11001 11000 10999 10999 10997 10996 10995 10994 10993 10992 10991 10990 10989 10988 10987 10987 10985 10984 10983 10983 10982 10980 10979 10977 10976 10974 10974 10973 10973 10972 10972 10971 10971
11002 11003 11003 11004 11004 11003 11004 11005 11006 11007 11008 11009 11010 11011 11011 11011 11012 11012 11012 11013 11013 11014 11015 11015 11016 11017 11017 11017 11017 11017 11017 11017 11016 11016 11016 11015 11015 11014 11013 11013 11012 11012 11011 11011 11011 11011 11010 11009 11008 11007 11006 11005 11003 11002 11002 11001 11000 10999 10998 10997 10995 10995 10993 10992 10991 10991 10990 10989 10988 10986 10986 10985 10985 10983 10982 10980 10979 10977 10977 10976 10976 10975 10975 10975 10974
11000 11001 11002 11003 11003 11003 11003 11004 11005 11006 11008 11009 11010 11011 11012 11011 11012 11012 11013 11013 11013 11014 11015 11016 11017 11017 11017 11017 11018 11018 11019 11018 11017 11017 11017 11017 11016 11016 11015 11014 11014 11013 11013 11013 11013 11012 11012 11011 11010 11009 11008 11007 11006 11005 11004 11003 11002 11001 11000 10999 10998 10997 10996 10994 10994 10993 10993 10991 10990 10989 10988 10988 10987 10986 10984 10983 10981 10980 10980 10979 10978 10978 10978 10977 10977
10998 11000 11001 11002 11002 11002 11002 11003 11004 11005 11007 11008 11010 11011 11011 11012 11012 11012 11013 11013 11013 11014 11015 11016 11017 11017 11017 11017 11018 11019 11019 11019 11018 11018 11018 11018 11018 11017 11016 11016 11015 11015 11014 11014 11014 11014 11013 11013 11012 11011 11010 11009 11008 11007 11006 11005 11004 11003 11002 11001 11000 10999 10998 10997 10996 10996 10995 10994 10992 10991 10991 10990 10990 10988 10987 10986 10985 10984 10983 10982 10981 10981 10981 10980 10980
10996 10998 11000 11001 11001 11001 11001 11002 11003 11004 11006 11007 11009 11010 11011 11011 11012 11012 11013 11013 11014 11014 11015 11016 11017 11017 11018 11018 11019 11020 11020 11020 11019 11019 11019 11019 11019 11018 11018 11017 11016 11016 11015 11015 11015 11015 11014 11014 11013 11013 11012 11011 11010 11009 11009 11008 11007 11006 11005 11003 11002 11001 11001 11000 10999 10998 10997 10996 10995 10993 10993 10993 10992 10991 10989 10988 10987 10987 10986 10985 10984 10983 10983 10982 10982
10994 10996 10997 10999 10999 11000 11000 11000 11002 11003 11005 11006 11008 11009 11010 11011 11011 11012 11013 11013 11014 11015 11015 11016 11017 11018 11018 11019 11020 11020 11020 11020 11020 11020 11020 11019 11019 11019 11019 11018 11017 11017 11017 11017 11016 11016 11016 11015 11015 11014 11014 11013 11012 11012 11011 11010 11009 11008 11007 11006 11004 11003 11003 11002 11001 11000 10999 10998 10997 10996 10995 10995 10994 10993 10992 10991 10990 10989 10988 10987 10986 10986 10985 10984 10984
10992 10994 10995 10997 10998 10999 10999 10999 11000 11002 11003 11005 11007 11008 11009 11010 11011 11012 11012 11013 11014 11015 11016 11017 11017 11018 11019 11019 11020 11020 11021 11021 11021 11021 11021 11020 11020 11020 11020 11019 11019 11018 11018 11018 11018 11017 11017 11017 11016 11016 11015 11015 11014 11014 11013 11012 11011 11011 11009 11008 11006 11006 11005 11004 11003 11002 11001 11000 11000 10998 10997 10997 10996 10995 10994 10993 10992 10991 10990 10989 10988 10987 10987 10986 10985
10990 10992 10993 10995 10996 10997 10997 10998 10998 11000 11002 11003 11005 11007 11008 11009 11010 11011 11012 11013 11013 11014 11015 11016 11017 11018 11019 11019 11020 11020 11021 11021 11021 11021 11021 11021 11021 11021 11020 11020 11019 11019 11019 11019 11019 11018 11018 11017 11017 11017 11017 11016 11016 11015 11014 11014 11013 11012 11011 11010 11008 11008 11007 11006 11005 11004 11003 11002 11001 11000 10999 10999 10998 10997 10995 10994 10993 10992 10991 10991 10990 10989 10988 10988 10988